Satellite-Ground Cal/Val Region Overpasses Predictions

Prediction of Satellite NPP Overpassing Cal/Val Region: PacNW

Region Location: (Latitude: 10.00, Longitude: 139.50) to (Latitude: 22.70, Longitude: 165.60).

Table of predicted overpasses for the next 14.0 days since TLE Epoch: 4/17/2023
Interval Starting Time Starting Location Ending Time Ending Location
1 04/17/2023 15:26:17 ( 22.64, 153.97) 04/17/2023 15:29:52 ( 10.02, 150.97)
2 04/18/2023 02:35:21 ( 10.06, 161.51) 04/18/2023 02:38:56 ( 22.68, 158.51)
3 04/18/2023 15:07:13 ( 22.68, 158.74) 04/18/2023 15:10:49 ( 10.00, 155.73)
4 04/19/2023 02:17:09 ( 13.02, 165.59) 04/19/2023 02:19:53 ( 22.64, 163.28)
5 04/19/2023 03:57:48 ( 10.03, 140.90) 04/19/2023 03:59:30 ( 16.02, 139.51)
6 04/19/2023 14:48:11 ( 22.66, 163.49) 04/19/2023 14:51:46 ( 10.04, 160.49)
7 04/20/2023 03:38:45 ( 10.05, 145.65) 04/20/2023 03:42:20 ( 22.68, 142.66)
8 04/20/2023 14:32:17 ( 11.54, 165.60) 04/20/2023 14:32:43 ( 10.01, 165.25)
9 04/20/2023 16:10:37 ( 22.68, 142.88) 04/20/2023 16:14:13 ( 10.00, 139.87)
10 04/21/2023 03:19:42 ( 10.02, 150.42) 04/21/2023 03:23:17 ( 22.64, 147.42)
11 04/21/2023 15:51:35 ( 22.66, 147.63) 04/21/2023 15:55:10 ( 10.04, 144.64)
12 04/22/2023 03:00:39 ( 10.05, 155.17) 04/22/2023 03:04:14 ( 22.67, 152.18)
13 04/22/2023 15:32:31 ( 22.69, 152.40) 04/22/2023 15:36:07 ( 10.01, 149.39)
14 04/23/2023 02:41:36 ( 10.02, 159.94) 04/23/2023 02:45:11 ( 22.64, 156.94)
15 04/23/2023 15:13:29 ( 22.66, 157.15) 04/23/2023 15:17:04 ( 10.04, 154.16)
16 04/24/2023 02:22:34 ( 10.05, 164.69) 04/24/2023 02:26:09 ( 22.67, 161.69)
17 04/24/2023 14:54:25 ( 22.69, 161.92) 04/24/2023 14:58:01 ( 10.01, 158.91)
18 04/25/2023 03:45:00 ( 10.03, 144.08) 04/25/2023 03:48:35 ( 22.66, 141.08)
19 04/25/2023 14:36:38 ( 18.26, 165.59) 04/25/2023 14:38:58 ( 10.03, 163.67)
20 04/25/2023 16:16:53 ( 22.64, 141.29) 04/25/2023 16:18:59 ( 15.25, 139.50)
21 04/26/2023 03:25:57 ( 10.01, 148.84) 04/26/2023 03:29:33 ( 22.69, 145.83)
22 04/26/2023 15:57:49 ( 22.67, 146.06) 04/26/2023 16:01:24 ( 10.05, 143.06)
23 04/27/2023 03:06:54 ( 10.04, 153.60) 04/27/2023 03:10:29 ( 22.67, 150.60)
24 04/27/2023 15:38:46 ( 22.69, 150.82) 04/27/2023 15:42:22 ( 10.01, 147.81)
25 04/28/2023 02:47:51 ( 10.02, 158.36) 04/28/2023 02:51:26 ( 22.65, 155.36)
26 04/28/2023 15:19:43 ( 22.65, 155.57) 04/28/2023 15:23:18 ( 10.03, 152.58)
27 04/29/2023 02:28:47 ( 10.00, 163.12) 04/29/2023 02:32:23 ( 22.69, 160.11)
28 04/29/2023 15:00:40 ( 22.67, 160.34) 04/29/2023 15:04:15 ( 10.05, 157.34)
29 04/30/2023 02:12:31 ( 19.79, 165.59) 04/30/2023 02:13:20 ( 22.67, 164.88)
30 04/30/2023 03:51:15 ( 10.05, 142.50) 04/30/2023 03:54:50 ( 22.68, 139.50)
31 04/30/2023 14:41:37 ( 22.69, 165.10) 04/30/2023 14:45:13 ( 10.01, 162.09)
